Location: Drummondville
(45.8830°N, 72.4830°W)
Time: 13:50:27
(UTC-05:00)

N. Korean satellite - Pass Details

Date: 15 November 2017
Orbit: 460 x 514 km, 97.2° (Epoch: 20 November)

Event Time Altitude Azimuth Distance (km) Brightness Sun altitude
Rises 18:23:47 0° 191° (S) 2,478 10.4 -21.8°
Reaches altitude 10° 18:26:00 10° 204° (SSW) 1,613 9.5 -22.1°
Maximum altitude 18:29:01 28° 264° (W) 918 8.6 -22.7°
Drops below altitude 10° 18:32:05 10° 325° (NW) 1,646 9.6 -23.2°
Sets 18:34:23 0° 338° (NNW) 2,539 10.5 -23.6°
